Find Starlink 2364

NORAD ID: 47904 Int'l Des: 2021-021 Owner: SPXS Country: US Constellation: starlink operational
LEOCIRCULAR

Current View

Loading 3D Globe...

About Starlink 2364

Description loading...

Upcoming Passes

Passes for default location (London). Set your location on the main map for personalized predictions.

Altitude History

Loading altitude history...

Two-Line Element Set

1 47904U 21021AW 26150.63169969 .00008230 00000-0 27651-3 0 9990
2 47904 53.1598 234.1183 0001379 85.4558 274.6601 15.31719974288960
Epoch: May 30, 2026 • Age: 20 hours

Current Status

Altitude 487.5 km
Velocity 7.62 km/s
Sub-Earth Point -46.94°S, 48.88°E
Launch Date Mar 14, 2021
Age 5.2 years
Type internet

Technical Details

Classification Payload
Mass 260.00 kg
Dry Mass 248.00 kg
Total Mass 260.00 kg
Length 0.20 m
Diameter 2.80 m
Span 9.00 m
Shape Box + pan
Manufacturer SPXS
Bus Type Starlink
Phase Status In Orbit
Owner/State SPXS/US

Most Searched